This is the latest recevied weather packets stored in our database for station/object SQ9MHX-13. If no packets are shown the sender has not sent any weather packets the latest 10 day(s).
| Time | Temp. | Humidity | Pressure | Rain* | Wind** | Luminosity | Snow |
|---|---|---|---|---|---|---|---|
| 1777837623 | 17.22° C | 38% | 962.5 hPa | - | 0 m/s | - | - |
| 1777836727 | 17.78° C | 35% | 961.2 hPa | - | 0 m/s | - | - |
| 1777835233 | 18.89° C | 33% | 960.2 hPa | - | 0 m/s | - | - |
| 1777834934 | 18.89° C | 32% | 960 hPa | - | 0 m/s | - | - |
| 1777834037 | 18.89° C | 31% | 959.5 hPa | - | 0 m/s | - | - |
| 1777833792 | 18.89° C | 31% | 959.7 hPa | - | 0 m/s | - | - |
| 1777833739 | 18.89° C | 31% | 959.7 hPa | - | 0 m/s | - | - |
| 1777833440 | 18.89° C | 31% | 959.9 hPa | - | 0 m/s | - | - |
| 1777833141 | 18.89° C | 31% | 960.2 hPa | - | 0 m/s | - | - |
| 1777832842 | 18.89° C | 33% | 960.6 hPa | - | 0 m/s | - | - |
| 1777832543 | 17.78° C | 34% | 960.5 hPa | - | 0 m/s | - | - |
| 1777832244 | 18.89° C | 34% | 959.4 hPa | - | 0 m/s | - | - |
| 1777831647 | 18.89° C | 35% | 958.1 hPa | - | 0 m/s | - | - |
| 1777831348 | 20° C | 29% | 957.9 hPa | - | 0 m/s | - | - |
| 1777831049 | 20° C | 29% | 957.7 hPa | - | 0 m/s | - | - |
| 1777830451 | 20° C | 29% | 957.2 hPa | - | 0 m/s | - | - |
| 1777830152 | 21.11° C | 29% | 956.8 hPa | - | 0 m/s | - | - |
| 1777829554 | 21.11° C | 27% | 955.7 hPa | - | 0 m/s | - | - |
| 1777829255 | 22.22° C | 27% | 955.2 hPa | - | 0 m/s | - | - |
| 1777829023 | 22.78° C | 25% | 954.8 hPa | - | 0 m/s | - | - |
| 1777828956 | 22.78° C | 25% | 954.8 hPa | - | 0 m/s | - | - |
| 1777828657 | 22.78° C | 25% | 954.5 hPa | - | 0 m/s | - | - |
| 1777828358 | 22.78° C | 26% | 954.1 hPa | - | 0 m/s | - | - |
| 1777828059 | 23.89° C | 25% | 953.4 hPa | - | 0 m/s | - | - |
| 1777827760 | 23.89° C | 23% | 953.2 hPa | - | 0 m/s | - | - |
* Rain since midnight (hover to see other rain measurements)
** Current wind speed in m/s (hover to see current wind gust speed)